,,,PA_Meas_PMT16A,,PR_Meas_QMR101_102,,RH_Meas_QMH101,,SR_Meas_QMS101,,TA_Meas_QMH101,,GenWind,,GenWind,
date,time,status,PA,status,PR,status,RH,status,SR,status,TA,status,DirAvg,status,SpdAvg,
2011-03-24, 00:00:04,VALID,999.034,VALID,0,VALID,93.1882,VALID,0,VALID,23.5451,VALID,10,VALID,0,
2011-03-24, 00:01:04,VALID,999.039,VALID,0,VALID,93.1958,VALID,0,VALID,23.5451,VALID,10,VALID,0,
2011-03-24, 00:02:04,VALID,998.993,VALID,0,VALID,93.1805,VALID,0,VALID,23.5238,VALID,10,VALID,0,
2011-03-24, 00:03:04,VALID,999.016,VALID,0,VALID,93.2034,VALID,0,VALID,23.5646,VALID,10,VALID,0,
2011-03-24, 00:04:04,VALID,998.977,VALID,0,VALID,93.1958,VALID,0,VALID,23.5646,VALID,10,VALID,0,
2011-03-24, 00:05:04,VALID,998.949,VALID,0,VALID,93.1882,VALID,0,VALID,23.5646,VALID,44,VALID,0,
2011-03-24, 00:06:04,VALID,998.923,VALID,0,VALID,93.1882,VALID,0,VALID,23.5646,VALID,53,VALID,0.875391,
2011-03-24, 00:07:04,VALID,998.92,VALID,0,VALID,93.1805,VALID,0,VALID,23.5841,VALID,53,VALID,0.980078,
2011-03-24, 00:08:04,VALID,998.922,VALID,0,VALID,93.1729,VALID,0,VALID,23.5841,VALID,50,VALID,1.05273,
2011-03-24, 00:09:04,VALID,998.921,VALID,0,VALID,93.1958,VALID,0,VALID,23.6036,VALID,50,VALID,0.917578,
2011-03-24, 00:10:04,VALID,998.891,VALID,0,VALID,93.1805,VALID,0,VALID,23.6232,VALID,50,VALID,0.653516,
2011-03-24, 00:11:04,VALID,998.861,VALID,0,VALID,93.1805,VALID,0,VALID,23.6427,VALID,51,VALID,0.959766,
2011-03-24, 00:12:04,VALID,998.836,VALID,0,VALID,93.1882,VALID,0,VALID,23.6427,VALID,57,VALID,1.00859,
2011-03-24, 00:13:04,VALID,998.841,VALID,0,VALID,93.1882,VALID,0,VALID,23.6622,VALID,61,VALID,0.864453,
2011-03-24, 00:14:04,VALID,998.795,VALID,0,VALID,93.1653,VALID,0,VALID,23.6622,VALID,61,VALID,0.792188,
2011-03-24, 00:15:04,VALID,998.789,VALID,0,VALID,93.1729,VALID,0,VALID,23.6817,VALID,71,VALID,1.03437,
2011-03-24, 00:16:04,VALID,998.756,VALID,0,VALID,93.15,VALID,0,VALID,23.7012,VALID,89,VALID,0.835547,
2011-03-24, 00:17:04,VALID,998.737,VALID,0,VALID,93.15,VALID,0,VALID,23.7012,VALID,88,VALID,0.504687,
2011-03-24, 00:18:04,VALID,998.708,VALID,0,VALID,93.15,VALID,0,VALID,23.7207,VALID,88,VALID,0,
2011-03-24, 00:19:04,VALID,998.661,VALID,0,VALID,93.1577,VALID,0,VALID,23.7207,VALID,88,VALID,0,
2011-03-24, 00:20:04,VALID,998.641,VALID,0,VALID,93.1424,VALID,0,VALID,23.7207,VALID,119,VALID,0,
2011-03-24, 00:21:04,VALID,998.614,VALID,0,VALID,93.1348,VALID,0,VALID,23.7207,VALID,119,VALID,0,
2011-03-24, 00:22:04,VALID,998.612,VALID,0,VALID,93.1348,VALID,0,VALID,23.6817,VALID,119,VALID,0,
2011-03-24, 00:23:04,VALID,998.619,VALID,0,VALID,93.1195,VALID,0,VALID,23.7012,VALID,119,VALID,0,
2011-03-24, 00:24:04,VALID,998.596,VALID,0,VALID,93.1424,VALID,0,VALID,23.7225,VALID,119,VALID,0,
2011-03-24, 00:25:04,VALID,998.579,VALID,0,VALID,93.1424,VALID,0,VALID,23.7012,VALID,119,VALID,0,
2011-03-24, 00:26:04,VALID,998.564,VALID,0,VALID,93.1348,VALID,0,VALID,23.7207,VALID,119,VALID,0,
2011-03-24, 00:27:04,VALID,998.528,VALID,0,VALID,93.1119,VALID,0,VALID,23.6817,VALID,119,VALID,0,
2011-03-24, 00:28:04,VALID,998.525,VALID,0,VALID,93.1195,VALID,0,VALID,23.6817,VALID,119,VALID,0,
2011-03-24, 00:29:04,VALID,998.535,VALID,0,VALID,93.1119,VALID,0,VALID,23.7012,VALID,119,VALID,0,
2011-03-24, 00:30:04,VALID,998.527,VALID,0,VALID,93.1043,VALID,0,VALID,23.7012,VALID,119,VALID,0,
2011-03-24, 00:31:04,VALID,998.495,VALID,0,VALID,93.089,VALID,0,VALID,23.7012,VALID,119,VALID,0,
2011-03-24, 00:32:04,VALID,998.471,VALID,0,VALID,93.0966,VALID,0,VALID,23.6817,VALID,119,VALID,0,
2011-03-24, 00:33:04,VALID,998.469,VALID,0,VALID,93.0737,VALID,0,VALID,23.7012,VALID,119,VALID,0,
2011-03-24, 00:34:04,VALID,998.457,VALID,0,VALID,93.0814,VALID,0,VALID,23.7012,VALID,119,VALID,0,
2011-03-24, 00:35:04,VALID,998.44,VALID,0,VALID,93.0737,VALID,0,VALID,23.6817,VALID,119,VALID,0,
2011-03-24, 00:36:04,VALID,998.424,VALID,0,VALID,93.0737,VALID,0,VALID,23.6817,VALID,119,VALID,0,
2011-03-24, 00:37:04,VALID,998.425,VALID,0,VALID,93.0508,VALID,0,VALID,23.6604,VALID,119,VALID,0,
2011-03-24, 00:38:04,VALID,998.451,VALID,0,VALID,93.0356,VALID,0,VALID,23.6817,VALID,119,VALID,0,
2011-03-24, 00:39:04,VALID,998.455,VALID,0,VALID,93.028,VALID,0,VALID,23.7012,VALID,119,VALID,0,
2011-03-24, 00:40:04,VALID,998.462,VALID,0,VALID,93.0432,VALID,0,VALID,23.7012,VALID,119,VALID,0,
2011-03-24, 00:41:04,VALID,998.473,VALID,0,VALID,92.9974,VALID,0,VALID,23.7012,VALID,119,VALID,0,
2011-03-24, 00:42:04,VALID,998.505,VALID,0,VALID,92.9898,VALID,0,VALID,23.7207,VALID,119,VALID,0,
2011-03-24, 00:43:04,VALID,998.522,VALID,0,VALID,92.9745,VALID,0,VALID,23.6994,VALID,119,VALID,0,
2011-03-24, 00:44:04,VALID,998.503,VALID,0,VALID,92.9517,VALID,0,VALID,23.7207,VALID,119,VALID,0,
2011-03-24, 00:45:04,VALID,998.54,VALID,0,VALID,92.944,VALID,0,VALID,23.7207,VALID,119,VALID,0,
2011-03-24, 00:46:04,VALID,998.547,VALID,0,VALID,92.9288,VALID,0,VALID,23.7402,VALID,115,VALID,0,
2011-03-24, 00:47:04,VALID,998.565,VALID,0,VALID,92.9135,VALID,0,VALID,23.7402,VALID,115,VALID,0,
2011-03-24, 00:48:04,VALID,998.596,VALID,0,VALID,92.9211,VALID,0,VALID,23.7402,VALID,112,VALID,0,
2011-03-24, 00:49:04,VALID,998.615,VALID,0,VALID,92.8983,VALID,0,VALID,23.7402,VALID,109,VALID,0,
2011-03-24, 00:50:04,VALID,998.606,VALID,0,VALID,92.8754,VALID,0,VALID,23.7402,VALID,98,VALID,0.965234,
2011-03-24, 00:51:04,VALID,998.652,VALID,0,VALID,92.8601,VALID,0,VALID,23.7402,VALID,98,VALID,0.946484,
2011-03-24, 00:52:04,VALID,998.65,VALID,0,VALID,92.8525,VALID,0,VALID,23.7207,VALID,98,VALID,0.664844,
2011-03-24, 00:53:04,VALID,998.64,VALID,0,VALID,92.8448,VALID,0,VALID,23.7402,VALID,94,VALID,0.774609,
2011-03-24, 00:54:04,VALID,998.651,VALID,0,VALID,92.8296,VALID,0,VALID,23.7207,VALID,98,VALID,0.576563,
2011-03-24, 00:55:04,VALID,998.645,VALID,0,VALID,92.822,VALID,0,VALID,23.7207,VALID,97,VALID,0,
2011-03-24, 00:56:04,VALID,998.622,VALID,0,VALID,92.8143,VALID,0,VALID,23.7012,VALID,91,VALID,0,
2011-03-24, 00:57:04,VALID,998.648,VALID,0,VALID,92.8067,VALID,0,VALID,23.7012,VALID,91,VALID,0,
2011-03-24, 00:58:04,VALID,998.642,VALID,0,VALID,92.7914,VALID,0,VALID,23.6817,VALID,91,VALID,0,
2011-03-24, 00:59:04,VALID,998.601,VALID,0,VALID,92.8143,VALID,0,VALID,23.6817,VALID,91,VALID,0,
2011-03-24, 01:00:04,VALID,998.585,VALID,0,VALID,92.7991,VALID,0,VALID,23.6604,VALID,91,VALID,0,
2011-03-24, 01:01:04,VALID,998.556,VALID,0,VALID,92.7609,VALID,0,VALID,23.6622,VALID,91,VALID,0,
2011-03-24, 01:02:04,VALID,998.534,VALID,0,VALID,92.7685,VALID,0,VALID,23.664,VALID,91,VALID,0,
2011-03-24, 01:03:04,VALID,998.537,VALID,0,VALID,92.7609,VALID,0,VALID,23.6622,VALID,91,VALID,0,
2011-03-24, 01:04:04,VALID,998.525,VALID,0,VALID,92.7228,VALID,0,VALID,23.6622,VALID,92,VALID,0,
2011-03-24, 01:05:04,VALID,998.538,VALID,0,VALID,92.7457,VALID,0,VALID,23.6817,VALID,92,VALID,0,
2011-03-24, 01:06:04,VALID,998.562,VALID,0,VALID,92.7151,VALID,0,VALID,23.6622,VALID,92,VALID,0,
2011-03-24, 01:07:04,VALID,998.573,VALID,0,VALID,92.738,VALID,0,VALID,23.6622,VALID,92,VALID,0,
2011-03-24, 01:08:04,VALID,998.579,VALID,0,VALID,92.7228,VALID,0,VALID,23.6622,VALID,92,VALID,0,
2011-03-24, 01:09:04,VALID,998.604,VALID,0,VALID,92.6999,VALID,0,VALID,23.6622,VALID,92,VALID,0,
2011-03-24, 01:10:04,VALID,998.632,VALID,0,VALID,92.7075,VALID,0,VALID,23.6622,VALID,92,VALID,0,
2011-03-24, 01:11:04,VALID,998.63,VALID,0,VALID,92.7075,VALID,0,VALID,23.6817,VALID,92,VALID,0,
2011-03-24, 01:12:04,VALID,998.636,VALID,0,VALID,92.7151,VALID,0,VALID,23.6817,VALID,92,VALID,0,
2011-03-24, 01:13:04,VALID,998.626,VALID,0,VALID,92.6923,VALID,0,VALID,23.7012,VALID,79,VALID,0,
2011-03-24, 01:14:04,VALID,998.651,VALID,0,VALID,92.6846,VALID,0,VALID,23.6817,VALID,64,VALID,0,
2011-03-24, 01:15:04,VALID,998.654,VALID,0,VALID,92.6999,VALID,0,VALID,23.6817,VALID,59,VALID,0,
2011-03-24, 01:16:04,VALID,998.631,VALID,0,VALID,92.6465,VALID,0,VALID,23.6817,VALID,59,VALID,0,
2011-03-24, 01:17:04,VALID,998.626,VALID,0,VALID,92.6617,VALID,0,VALID,23.7012,VALID,59,VALID,0,
2011-03-24, 01:18:04,VALID,998.597,VALID,0,VALID,92.6541,VALID,0,VALID,23.6994,VALID,59,VALID,0,
2011-03-24, 01:19:04,VALID,998.57,VALID,0,VALID,92.6465,VALID,0,VALID,23.7207,VALID,59,VALID,0,
2011-03-24, 01:20:04,VALID,998.573,VALID,0,VALID,92.6541,VALID,0,VALID,23.7207,VALID,59,VALID,0,
2011-03-24, 01:21:04,VALID,998.519,VALID,0,VALID,92.6388,VALID,0,VALID,23.7207,VALID,59,VALID,0,
2011-03-24, 01:22:04,VALID,998.489,VALID,0,VALID,92.6541,VALID,0,VALID,23.6994,VALID,59,VALID,0,
2011-03-24, 01:23:04,VALID,998.442,VALID,0,VALID,92.6388,VALID,0,VALID,23.7207,VALID,59,VALID,0,
2011-03-24, 01:24:04,VALID,998.422,VALID,0,VALID,92.6236,VALID,0,VALID,23.7207,VALID,59,VALID,0,
2011-03-24, 01:25:04,VALID,998.401,VALID,0,VALID,92.616,VALID,0,VALID,23.7207,VALID,59,VALID,0,
2011-03-24, 01:26:04,VALID,998.4,VALID,0,VALID,92.6312,VALID,0,VALID,23.7207,VALID,59,VALID,0,
2011-03-24, 01:27:04,VALID,998.353,VALID,0,VALID,92.6083,VALID,0,VALID,23.7207,VALID,59,VALID,0,
2011-03-24, 01:28:04,VALID,998.351,VALID,0,VALID,92.616,VALID,0,VALID,23.7207,VALID,59,VALID,0,
2011-03-24, 01:29:04,VALID,998.35,VALID,0,VALID,92.5778,VALID,0,VALID,23.7189,VALID,60,VALID,0,
2011-03-24, 01:30:04,VALID,998.369,VALID,0,VALID,92.5778,VALID,0,VALID,23.7402,VALID,60,VALID,0,
2011-03-24, 01:31:04,VALID,998.349,VALID,0,VALID,92.5702,VALID,0,VALID,23.7207,VALID,60,VALID,0,
2011-03-24, 01:32:04,VALID,998.357,VALID,0,VALID,92.5397,VALID,0,VALID,23.7402,VALID,60,VALID,0,
2011-03-24, 01:33:04,VALID,998.353,VALID,0,VALID,92.532,VALID,0.112286,VALID,23.7189,VALID,60,VALID,0,
2011-03-24, 01:34:04,VALID,998.356,VALID,0,VALID,92.5397,VALID,0,VALID,23.7597,VALID,60,VALID,0,
2011-03-24, 01:35:04,VALID,998.352,VALID,0,VALID,92.5091,VALID,0,VALID,23.7597,VALID,60,VALID,0,
2011-03-24, 01:36:04,VALID,998.334,VALID,0,VALID,92.5091,VALID,0,VALID,23.7579,VALID,60,VALID,0,
2011-03-24, 01:37:04,VALID,998.325,VALID,0,VALID,92.4863,VALID,0,VALID,23.7793,VALID,60,VALID,0,
2011-03-24, 01:38:04,VALID,998.331,VALID,0,VALID,92.471,VALID,0,VALID,23.7579,VALID,60,VALID,0,
2011-03-24, 01:39:04,VALID,998.325,VALID,0,VALID,92.4863,VALID,0,VALID,23.7793,VALID,60,VALID,0,
2011-03-24, 01:40:04,VALID,998.331,VALID,0,VALID,92.4481,VALID,0,VALID,23.7793,VALID,60,VALID,0,
2011-03-24, 01:41:04,VALID,998.325,VALID,0,VALID,92.4405,VALID,0,VALID,23.7775,VALID,60,VALID,0,
2011-03-24, 01:42:04,VALID,998.293,VALID,0,VALID,92.4176,VALID,0,VALID,23.7793,VALID,60,VALID,0,
2011-03-24, 01:43:04,VALID,998.259,VALID,0,VALID,92.4176,VALID,0,VALID,23.7384,VALID,60,VALID,0,
2011-03-24, 01:44:04,VALID,998.231,VALID,0,VALID,92.4023,VALID,0,VALID,23.7384,VALID,60,VALID,0,
2011-03-24, 01:45:04,VALID,998.238,VALID,0,VALID,92.4328,VALID,0,VALID,23.7384,VALID,60,VALID,0,
2011-03-24, 01:46:04,VALID,998.21,VALID,0,VALID,92.4328,VALID,0,VALID,23.7384,VALID,60,VALID,0,
2011-03-24, 01:47:04,VALID,998.166,VALID,0,VALID,92.4481,VALID,0,VALID,23.7189,VALID,80,VALID,0,
2011-03-24, 01:48:04,VALID,998.133,VALID,0,VALID,92.4481,VALID,0,VALID,23.7189,VALID,86,VALID,0,
2011-03-24, 01:49:04,VALID,998.107,VALID,0,VALID,92.4863,VALID,0,VALID,23.7402,VALID,86,VALID,0,
2011-03-24, 01:50:04,VALID,998.082,VALID,0,VALID,92.471,VALID,0,VALID,23.7402,VALID,86,VALID,0,
2011-03-24, 01:51:04,VALID,998.079,VALID,0,VALID,92.4863,VALID,0,VALID,23.6994,VALID,91,VALID,0,
2011-03-24, 01:52:04,VALID,998.049,VALID,0,VALID,92.471,VALID,0.112286,VALID,23.7207,VALID,103,VALID,0,
2011-03-24, 01:53:04,VALID,998.06,VALID,0,VALID,92.4939,VALID,0,VALID,23.6994,VALID,103,VALID,0.0582031,
2011-03-24, 01:54:04,VALID,998.069,VALID,0,VALID,92.5244,VALID,0,VALID,23.6799,VALID,100,VALID,1.2625,
2011-03-24, 01:55:04,VALID,998.075,VALID,0,VALID,92.532,VALID,0,VALID,23.6994,VALID,96,VALID,1.61953,
2011-03-24, 01:56:04,VALID,998.105,VALID,0,VALID,92.5626,VALID,0,VALID,23.6994,VALID,102,VALID,1.21641,
2011-03-24, 01:57:04,VALID,998.126,VALID,0,VALID,92.5549,VALID,0,VALID,23.6994,VALID,105,VALID,1.73789,
2011-03-24, 01:58:04,VALID,998.15,VALID,0,VALID,92.5702,VALID,0,VALID,23.7207,VALID,110,VALID,1.52461,
2011-03-24, 01:59:04,VALID,998.166,VALID,0,VALID,92.5854,VALID,0,VALID,23.7207,VALID,99,VALID,1.62617,
2011-03-24, 02:00:04,VALID,998.208,VALID,0,VALID,92.6007,VALID,0,VALID,23.7207,VALID,96,VALID,1.14727,
2011-03-24, 02:01:04,VALID,998.204,VALID,0,VALID,92.5931,VALID,0,VALID,23.7012,VALID,88,VALID,0.985937,
2011-03-24, 02:02:04,VALID,998.199,VALID,0,VALID,92.6007,VALID,0,VALID,23.7207,VALID,66,VALID,0.917188,
2011-03-24, 02:03:04,VALID,998.227,VALID,0,VALID,92.5931,VALID,0,VALID,23.7207,VALID,73,VALID,0.791797,
2011-03-24, 02:04:04,VALID,998.23,VALID,0,VALID,92.5778,VALID,0,VALID,23.7012,VALID,67,VALID,0.666797,
2011-03-24, 02:05:04,VALID,998.243,VALID,0,VALID,92.5931,VALID,0,VALID,23.7012,VALID,53,VALID,0.671875,
2011-03-24, 02:06:04,VALID,998.241,VALID,0,VALID,92.5854,VALID,0,VALID,23.7012,VALID,53,VALID,0.761719,
2011-03-24, 02:07:04,VALID,998.214,VALID,0,VALID,92.5778,VALID,0,VALID,23.6817,VALID,53,VALID,0.583594,
2011-03-24, 02:08:04,VALID,998.211,VALID,0,VALID,92.5778,VALID,0,VALID,23.6817,VALID,53,VALID,0,
2011-03-24, 02:09:04,VALID,998.184,VALID,0,VALID,92.5931,VALID,0,VALID,23.6817,VALID,53,VALID,0,
2011-03-24, 02:10:04,VALID,998.189,VALID,0,VALID,92.5702,VALID,0,VALID,23.6817,VALID,53,VALID,0,
2011-03-24, 02:11:04,VALID,998.154,VALID,0,VALID,92.5778,VALID,0,VALID,23.6817,VALID,65,VALID,0,
2011-03-24, 02:12:04,VALID,998.178,VALID,0,VALID,92.5626,VALID,0,VALID,23.7207,VALID,67,VALID,0,
2011-03-24, 02:13:04,VALID,998.187,VALID,0,VALID,92.5778,VALID,0,VALID,23.7207,VALID,76,VALID,0,
2011-03-24, 02:14:04,VALID,998.193,VALID,0,VALID,92.5549,VALID,0,VALID,23.7616,VALID,76,VALID,0,
2011-03-24, 02:15:04,VALID,998.235,VALID,0,VALID,92.532,VALID,0,VALID,23.7597,VALID,77,VALID,0,
2011-03-24, 02:16:04,VALID,998.261,VALID,0,VALID,92.5091,VALID,0,VALID,23.7597,VALID,85,VALID,0.21875,
2011-03-24, 02:17:04,VALID,998.249,VALID,0,VALID,92.5168,VALID,0,VALID,23.7579,VALID,83,VALID,1.21211,
2011-03-24, 02:18:04,VALID,998.31,VALID,0,VALID,92.4863,VALID,0,VALID,23.7793,VALID,91,VALID,1.29375,
2011-03-24, 02:19:04,VALID,998.298,VALID,0,VALID,92.4557,VALID,0,VALID,23.7988,VALID,86,VALID,1.29102,
2011-03-24, 02:20:04,VALID,998.305,VALID,0,VALID,92.4405,VALID,0,VALID,23.7988,VALID,87,VALID,1.03789,
2011-03-24, 02:21:04,VALID,998.317,VALID,0,VALID,92.4176,VALID,0,VALID,23.8183,VALID,84,VALID,0.83125,
2011-03-24, 02:22:04,VALID,998.306,VALID,0,VALID,92.3794,VALID,0,VALID,23.8183,VALID,84,VALID,1.22227,
2011-03-24, 02:23:04,VALID,998.324,VALID,0,VALID,92.3642,VALID,0,VALID,23.8378,VALID,83,VALID,1.125,
2011-03-24, 02:24:04,VALID,998.286,VALID,0,VALID,92.2955,VALID,0,VALID,23.8183,VALID,83,VALID,0.927344,
2011-03-24, 02:25:04,VALID,998.33,VALID,0,VALID,92.2879,VALID,0,VALID,23.8378,VALID,83,VALID,0.866016,
2011-03-24, 02:26:04,VALID,998.3,VALID,0,VALID,92.2574,VALID,0,VALID,23.8378,VALID,83,VALID,1.02148,
2011-03-24, 02:27:04,VALID,998.318,VALID,0,VALID,92.1963,VALID,0,VALID,23.8573,VALID,80,VALID,0.775781,
2011-03-24, 02:28:04,VALID,998.296,VALID,0,VALID,92.1506,VALID,0,VALID,23.8378,VALID,77,VALID,0.890234,
2011-03-24, 02:29:04,VALID,998.288,VALID,0,VALID,92.12,VALID,0,VALID,23.8573,VALID,67,VALID,0.918359,
2011-03-24, 02:30:04,VALID,998.297,VALID,0,VALID,92.0819,VALID,0,VALID,23.8768,VALID,70,VALID,0.965234,
2011-03-24, 02:31:04,VALID,998.277,VALID,0,VALID,92.0285,VALID,0,VALID,23.8963,VALID,70,VALID,0.773047,
2011-03-24, 02:32:04,VALID,998.292,VALID,0,VALID,91.9751,VALID,0,VALID,23.8768,VALID,69,VALID,1.02578,
2011-03-24, 02:33:04,VALID,998.324,VALID,0,VALID,91.9293,VALID,0,VALID,23.8768,VALID,57,VALID,1.04336,
2011-03-24, 02:34:04,VALID,998.302,VALID,0,VALID,91.8759,VALID,0,VALID,23.8768,VALID,58,VALID,1.10078,
2011-03-24, 02:35:04,VALID,998.327,VALID,0,VALID,91.8301,VALID,0,VALID,23.8963,VALID,53,VALID,0.842188,
2011-03-24, 02:36:04,VALID,998.364,VALID,0,VALID,91.8148,VALID,0,VALID,23.8963,VALID,53,VALID,0.838281,
2011-03-24, 02:37:04,VALID,998.379,VALID,0,VALID,91.7767,VALID,0,VALID,23.8963,VALID,49,VALID,0.992969,
2011-03-24, 02:38:04,VALID,998.401,VALID,0,VALID,91.7538,VALID,0,VALID,23.8768,VALID,48,VALID,1.16523,
2011-03-24, 02:39:04,VALID,998.392,VALID,0,VALID,91.7691,VALID,0,VALID,23.8963,VALID,46,VALID,0.936719,
2011-03-24, 02:40:04,VALID,998.414,VALID,0,VALID,91.7614,VALID,0,VALID,23.8963,VALID,21,VALID,0.689844,
2011-03-24, 02:41:04,VALID,998.42,VALID,0,VALID,91.7767,VALID,0,VALID,23.8768,VALID,22,VALID,0.660547,
2011-03-24, 02:42:04,VALID,998.41,VALID,0,VALID,91.8148,VALID,0,VALID,23.8573,VALID,22,VALID,0.997656,
2011-03-24, 02:43:04,VALID,998.44,VALID,0,VALID,91.8759,VALID,0,VALID,23.8573,VALID,11,VALID,1.21094,
2011-03-24, 02:44:04,VALID,998.427,VALID,0,VALID,91.9674,VALID,0,VALID,23.8786,VALID,21,VALID,1.11133,
2011-03-24, 02:45:04,VALID,998.445,VALID,0,VALID,92.0361,VALID,0,VALID,23.8786,VALID,36,VALID,1.22109,
2011-03-24, 02:46:04,VALID,998.456,VALID,0,VALID,92.0895,VALID,0,VALID,23.8573,VALID,28,VALID,1.15508,
2011-03-24, 02:47:04,VALID,998.472,VALID,0,VALID,92.1506,VALID,0,VALID,23.8963,VALID,34,VALID,1.275,
2011-03-24, 02:48:04,VALID,998.476,VALID,0,VALID,92.1811,VALID,0,VALID,23.8963,VALID,26,VALID,1.33242,
2011-03-24, 02:49:04,VALID,998.501,VALID,0,VALID,92.2421,VALID,0,VALID,23.8963,VALID,29,VALID,1.23164,
2011-03-24, 02:50:04,VALID,998.509,VALID,0,VALID,92.2116,VALID,0,VALID,23.8963,VALID,22,VALID,1.24688,
2011-03-24, 02:51:04,VALID,998.506,VALID,0,VALID,92.2268,VALID,0,VALID,23.9159,VALID,13,VALID,1.68281,
2011-03-24, 02:52:04,VALID,998.531,VALID,0,VALID,92.1811,VALID,0,VALID,23.9372,VALID,13,VALID,1.91836,
2011-03-24, 02:53:04,VALID,998.578,VALID,0,VALID,92.1811,VALID,0,VALID,23.9354,VALID,14,VALID,2.2293,
2011-03-24, 02:54:04,VALID,998.605,VALID,0,VALID,92.1506,VALID,0,VALID,23.9159,VALID,18,VALID,2.61953,
2011-03-24, 02:55:04,VALID,998.547,VALID,0,VALID,92.0971,VALID,0,VALID,23.8963,VALID,10,VALID,2.375,
2011-03-24, 02:56:04,VALID,998.516,VALID,0,VALID,92.059,VALID,0,VALID,23.8768,VALID,8,VALID,2.77852,
2011-03-24, 02:57:04,VALID,998.509,VALID,0,VALID,91.9903,VALID,0,VALID,23.8768,VALID,14,VALID,1.93789,
2011-03-24, 02:58:04,VALID,998.524,VALID,0,VALID,91.8835,VALID,0,VALID,23.8982,VALID,10,VALID,1.66523,
2011-03-24, 02:59:04,VALID,998.515,VALID,0,VALID,91.792,VALID,0,VALID,23.8786,VALID,11,VALID,1.91133,
2011-03-24, 03:00:04,VALID,998.489,VALID,0,VALID,91.6699,VALID,0,VALID,23.8786,VALID,10,VALID,1.83555,
2011-03-24, 03:01:04,VALID,998.449,VALID,0,VALID,91.4563,VALID,0,VALID,23.8768,VALID,11,VALID,2.1625,
2011-03-24, 03:02:04,VALID,998.412,VALID,0,VALID,91.0519,VALID,0,VALID,23.8768,VALID,14,VALID,2.76836,
2011-03-24, 03:03:04,VALID,998.418,VALID,0,VALID,90.4339,VALID,0,VALID,23.8963,VALID,360,VALID,2.91563,
2011-03-24, 03:04:04,VALID,998.398,VALID,0,VALID,89.4268,VALID,0,VALID,23.8573,VALID,13,VALID,3.03086,
2011-03-24, 03:05:04,VALID,998.392,VALID,0,VALID,88.2747,VALID,0,VALID,23.8183,VALID,15,VALID,3.49531,
2011-03-24, 03:06:04,VALID,998.386,VALID,0,VALID,88.4426,VALID,0,VALID,23.7793,VALID,25,VALID,2.96406,
2011-03-24, 03:07:04,VALID,998.371,VALID,0,VALID,88.5036,VALID,0,VALID,23.7012,VALID,32,VALID,3.03711,
2011-03-24, 03:08:04,VALID,998.371,VALID,0,VALID,88.3815,VALID,0,VALID,23.6427,VALID,21,VALID,2.78164,
2011-03-24, 03:09:04,VALID,998.38,VALID,0,VALID,88.2442,VALID,0,VALID,23.5646,VALID,21,VALID,2.36094,
2011-03-24, 03:10:04,VALID,998.365,VALID,0,VALID,88.702,VALID,0,VALID,23.5451,VALID,18,VALID,1.86992,
2011-03-24, 03:11:04,VALID,998.402,VALID,0,VALID,88.702,VALID,0,VALID,23.4671,VALID,21,VALID,2.23203,
2011-03-24, 03:12:04,VALID,998.411,VALID,0,VALID,88.9919,VALID,0,VALID,23.4493,VALID,23,VALID,2.92344,
2011-03-24, 03:13:04,VALID,998.446,VALID,0,VALID,89.2894,VALID,0,VALID,23.4085,VALID,24,VALID,2.53555,
2011-03-24, 03:14:04,VALID,998.44,VALID,0.5,VALID,89.7396,VALID,0,VALID,23.35,VALID,23,VALID,2.50352,
2011-03-24, 03:15:04,VALID,998.478,VALID,0,VALID,89.999,VALID,0,VALID,23.2524,VALID,23,VALID,2.57266,
2011-03-24, 03:16:04,VALID,998.493,VALID,0,VALID,90.2355,VALID,0,VALID,23.2134,VALID,27,VALID,2.65234,
2011-03-24, 03:17:04,VALID,998.497,VALID,0,VALID,90.5331,VALID,0,VALID,23.1744,VALID,22,VALID,1.95078,
2011-03-24, 03:18:04,VALID,998.524,VALID,0,VALID,90.762,VALID,0,VALID,23.1566,VALID,24,VALID,2.19492,
2011-03-24, 03:19:04,VALID,998.556,VALID,0,VALID,90.9451,VALID,0,VALID,23.1354,VALID,25,VALID,2.275,
2011-03-24, 03:20:04,VALID,998.512,VALID,0,VALID,91.09,VALID,0,VALID,23.1159,VALID,37,VALID,1.58242,
2011-03-24, 03:21:04,VALID,998.527,VALID,0.5,VALID,91.3342,VALID,0,VALID,23.1159,VALID,30,VALID,1.63711,
2011-03-24, 03:22:04,VALID,998.507,VALID,0,VALID,91.4944,VALID,0,VALID,23.0981,VALID,34,VALID,2.08477,
2011-03-24, 03:23:04,VALID,998.463,VALID,0,VALID,91.6088,VALID,0,VALID,23.0769,VALID,39,VALID,1.26797,
2011-03-24, 03:24:04,VALID,998.426,VALID,0,VALID,91.7233,VALID,0,VALID,23.0556,VALID,38,VALID,1.37422,
2011-03-24, 03:25:04,VALID,998.408,VALID,0,VALID,91.853,VALID,0,VALID,23.0378,VALID,35,VALID,1.02813,
2011-03-24, 03:26:04,VALID,998.4,VALID,0,VALID,91.9369,VALID,0,VALID,23.0183,VALID,35,VALID,0.869531,
2011-03-24, 03:27:04,VALID,998.404,VALID,0,VALID,92.0132,VALID,0,VALID,23.0183,VALID,24,VALID,0.935156,
2011-03-24, 03:28:04,VALID,998.402,VALID,0,VALID,92.0895,VALID,0,VALID,22.9988,VALID,23,VALID,0.893359,
2011-03-24, 03:29:04,VALID,998.418,VALID,0,VALID,92.1506,VALID,0,VALID,22.9988,VALID,23,VALID,0.969531,
2011-03-24, 03:30:04,VALID,998.411,VALID,0,VALID,92.2116,VALID,0,VALID,22.9988,VALID,23,VALID,0.778516,
2011-03-24, 03:31:04,VALID,998.395,VALID,0,VALID,92.2803,VALID,0,VALID,22.9793,VALID,359,VALID,0.869922,
2011-03-24, 03:32:04,VALID,998.388,VALID,0,VALID,92.3108,VALID,0,VALID,22.9793,VALID,358,VALID,0.55,
2011-03-24, 03:33:04,VALID,998.385,VALID,0,VALID,92.3566,VALID,0,VALID,22.9988,VALID,358,VALID,0.19375,
2011-03-24, 03:34:04,VALID,998.367,VALID,0,VALID,92.3871,VALID,0,VALID,23.0201,VALID,358,VALID,0,
2011-03-24, 03:35:04,VALID,998.36,VALID,0,VALID,92.4328,VALID,0,VALID,22.9793,VALID,358,VALID,0,
2011-03-24, 03:36:04,VALID,998.347,VALID,0,VALID,92.471,VALID,0,VALID,22.9598,VALID,358,VALID,0,
2011-03-24, 03:37:04,VALID,998.336,VALID,0,VALID,92.5015,VALID,0,VALID,22.9598,VALID,358,VALID,0,
2011-03-24, 03:38:04,VALID,998.323,VALID,0.5,VALID,92.532,VALID,0,VALID,22.9403,VALID,350,VALID,0,
2011-03-24, 03:39:04,VALID,998.316,VALID,0,VALID,92.5626,VALID,0,VALID,22.9598,VALID,350,VALID,0,
2011-03-24, 03:40:04,VALID,998.313,VALID,0,VALID,92.5702,VALID,0,VALID,22.9598,VALID,350,VALID,0,
2011-03-24, 03:41:04,VALID,998.289,VALID,0,VALID,92.5778,VALID,0,VALID,22.9598,VALID,350,VALID,0,
2011-03-24, 03:42:04,VALID,998.293,VALID,0,VALID,92.616,VALID,0,VALID,22.9598,VALID,350,VALID,0,
2011-03-24, 03:43:04,VALID,998.304,VALID,0,VALID,92.6388,VALID,0,VALID,22.9598,VALID,350,VALID,0,
2011-03-24, 03:44:04,VALID,998.312,VALID,0,VALID,92.6617,VALID,0,VALID,22.9403,VALID,350,VALID,0,
2011-03-24, 03:45:04,VALID,998.29,VALID,0,VALID,92.6999,VALID,0,VALID,22.9208,VALID,350,VALID,0,
2011-03-24, 03:46:04,VALID,998.274,VALID,0,VALID,92.6999,VALID,0,VALID,22.9208,VALID,350,VALID,0,
2011-03-24, 03:47:04,VALID,998.254,VALID,0,VALID,92.7151,VALID,0,VALID,22.942,VALID,350,VALID,0,
2011-03-24, 03:48:04,VALID,998.224,VALID,0,VALID,92.7609,VALID,0,VALID,22.9208,VALID,350,VALID,0,
2011-03-24, 03:49:04,VALID,998.24,VALID,0,VALID,92.7762,VALID,0,VALID,22.9013,VALID,350,VALID,0,
2011-03-24, 03:50:04,VALID,998.197,VALID,0,VALID,92.7685,VALID,0,VALID,22.9225,VALID,350,VALID,0,
2011-03-24, 03:51:04,VALID,998.23,VALID,0,VALID,92.7762,VALID,0,VALID,22.9225,VALID,350,VALID,0,
2011-03-24, 03:52:04,VALID,998.21,VALID,0,VALID,92.8067,VALID,0,VALID,22.9208,VALID,350,VALID,0,
2011-03-24, 03:53:04,VALID,998.212,VALID,0,VALID,92.822,VALID,0,VALID,22.9208,VALID,350,VALID,0,
2011-03-24, 03:54:04,VALID,998.187,VALID,0,VALID,92.8296,VALID,0,VALID,22.9013,VALID,350,VALID,0,